Weather History for Farmville, VA

Change the Weather History Date:

Friday, May 3, 2013

  Actual Average Record
Temperature  
Mean Temperature 56 °F -  
Max Temperature 71 °F 76 °F 93 °F (1942)
Min Temperature 42 °F 48 °F 31 °F (1961)
Degree Days  
Heating Degree Days 8    
Growing Degree Days 6 (Base 50)    
Moisture  
Dew Point 42 °F    
Average Humidity 65    
Maximum Humidity 100    
Minimum Humidity 25    
Precipitation  
Precipitation 0.00 in - - ()
Sea Level Pressure  
Sea Level Pressure 30.27 in    
Wind  
Wind Speed 4 mph (NE)    
Max Wind Speed 14 mph    
Max Gust Speed 21 mph    
Visibility 8 miles    
Events Fog    
Averages and records for this station are not official NWS values.
T = Trace of Precipitation, MM = Missing Value Source: NWS Daily Summary

Daily Weather History Graph

Daily Weather History Graph

Search for Another Location

Airport:

Trip Planner

Search our weather history database for the weather conditions in past years. The results will help you decide how hot, cold, wet, or windy it might be!

Date:

Astronomy

May. 03, 2013 Rise Set
Actual Time 6:16 AM EDT 8:05 PM EDT
Civil Twilight 5:48 AM EDT 8:33 PM EDT
Nautical Twilight 5:13 AM EDT 9:08 PM EDT
Astronomical Twilight 4:37 AM EDT 9:44 PM EDT
Moon 2:31 AM EDT (5/3) 2:05 PM EDT (5/3)
Length of Visible Light 14h 45m
Length of Day
13h 49m
Last Quarter, 37% of the Moon is Illuminated
May 3
Last Quarter
May 9
New
May 18
First Quarter
May 25
Full
May 31
Last Quarter

Hourly Weather History & Observations

Time (EDT) Temp. Windchill Dew Point Humidity Pressure Visibility Wind Dir Wind Speed Gust Speed Precip Events Conditions
12:15 AM 51.8 °F - 48.2 °F 88% 30.29 in 10.0 mi Calm Calm - N/A   Clear
12:35 AM 50.0 °F - 48.2 °F 94% 30.29 in 10.0 mi Calm Calm - N/A   Clear
12:55 AM 50.0 °F - 48.2 °F 94% 30.29 in 10.0 mi Calm Calm - N/A   Clear
1:15 AM 46.4 °F - 44.6 °F 93% 30.28 in 7.0 mi Calm Calm - N/A   Clear
1:35 AM 50.0 °F - 48.2 °F 94% 30.28 in 10.0 mi North 3.5 mph - N/A   Clear
1:55 AM 50.0 °F - 48.2 °F 94% 30.26 in 10.0 mi Calm Calm - N/A   Clear
2:15 AM 48.2 °F - 46.4 °F 93% 30.26 in 10.0 mi Calm Calm - N/A   Clear
2:35 AM 48.2 °F - 46.4 °F 93% 30.26 in 7.0 mi Calm Calm - N/A   Clear
2:55 AM 48.2 °F - 46.4 °F 93% 30.26 in 7.0 mi North 3.5 mph - N/A   Clear
3:15 AM 48.2 °F - 46.4 °F 93% 30.26 in 7.0 mi Calm Calm - N/A   Clear
3:35 AM 46.4 °F - 44.6 °F 93% 30.26 in 4.0 mi Calm Calm - N/A   Clear
4:15 AM 44.6 °F - 42.8 °F 93% 30.25 in 4.0 mi Calm Calm - N/A   Clear
4:35 AM 42.8 °F - 42.8 °F 100% 30.25 in 4.0 mi Calm Calm - N/A   Clear
4:55 AM 42.8 °F - 41.0 °F 93% 30.25 in 2.0 mi Calm Calm - N/A   Clear
5:15 AM 42.8 °F - 41.0 °F 93% 30.26 in 4.0 mi Calm Calm - N/A   Clear
5:35 AM 42.8 °F - 41.0 °F 93% 30.26 in 4.0 mi Calm Calm - N/A   Clear
5:55 AM 42.8 °F - 39.2 °F 87% 30.27 in 5.0 mi Calm Calm - N/A   Scattered Clouds
6:15 AM 44.6 °F 43.1 °F 42.8 °F 93% 30.27 in 5.0 mi North 3.5 mph - N/A   Overcast
6:35 AM 44.6 °F 42.2 °F 42.8 °F 93% 30.29 in 0.2 mi North 4.6 mph - N/A Fog Fog
6:55 AM 44.6 °F 43.1 °F 42.8 °F 93% 30.29 in 0.5 mi North 3.5 mph - N/A Fog Fog
7:15 AM 44.6 °F 43.1 °F 44.6 °F 100% 30.30 in 2.5 mi North 3.5 mph - N/A   Mostly Cloudy
7:35 AM 46.4 °F 45.2 °F 44.6 °F 93% 30.30 in 5.0 mi NNE 3.5 mph - N/A   Mostly Cloudy
7:55 AM 48.2 °F - 46.4 °F 93% 30.31 in 5.0 mi NNE 5.8 mph - N/A   Scattered Clouds
8:15 AM 48.2 °F - 48.2 °F 100% 30.30 in 7.0 mi North 6.9 mph - N/A   Scattered Clouds
8:35 AM 51.8 °F - 48.2 °F 88% 30.31 in 5.0 mi NNE 6.9 mph - N/A   Overcast
8:55 AM 51.8 °F - 50.0 °F 94% 30.31 in 7.0 mi NNE 6.9 mph - N/A   Overcast
9:15 AM 53.6 °F - 51.8 °F 94% 30.31 in 7.0 mi NNE 8.1 mph - N/A   Overcast
9:35 AM 55.4 °F - 51.8 °F 88% 30.32 in 10.0 mi NNE 8.1 mph - N/A   Overcast
9:55 AM 57.2 °F - 53.6 °F 88% 30.31 in 10.0 mi NNE 8.1 mph - N/A   Overcast
10:15 AM 59.0 °F - 53.6 °F 82% 30.31 in 10.0 mi NNE 10.4 mph - N/A   Overcast
10:35 AM 60.8 °F - 53.6 °F 77% 30.32 in 10.0 mi NE 10.4 mph - N/A   Overcast
10:55 AM 60.8 °F - 51.8 °F 72% 30.32 in 10.0 mi NE 8.1 mph 17.3 mph N/A   Overcast
11:15 AM 62.6 °F - 48.2 °F 59% 30.32 in 10.0 mi East 11.5 mph - N/A   Overcast
11:35 AM 62.6 °F - 48.2 °F 59% 30.32 in 10.0 mi ENE 6.9 mph - N/A   Overcast
11:55 AM 64.4 °F - 48.2 °F 56% 30.32 in 10.0 mi ENE 10.4 mph 16.1 mph N/A   Overcast
12:15 PM 64.4 °F - 48.2 °F 56% 30.31 in 10.0 mi East 9.2 mph - N/A   Overcast
12:35 PM 66.2 °F - 46.4 °F 49% 30.31 in 10.0 mi NE 9.2 mph 16.1 mph N/A   Mostly Cloudy
12:55 PM 66.2 °F - 46.4 °F 49% 30.30 in 10.0 mi East 6.9 mph - N/A   Mostly Cloudy
1:15 PM 66.2 °F - 46.4 °F 49% 30.29 in 10.0 mi NE 10.4 mph - N/A   Mostly Cloudy
1:35 PM 66.2 °F - 46.4 °F 49% 30.28 in 10.0 mi NE 11.5 mph 17.3 mph N/A   Mostly Cloudy
1:55 PM 66.2 °F - 44.6 °F 46% 30.28 in 10.0 mi East 8.1 mph - N/A   Mostly Cloudy
2:15 PM 69.8 °F - 44.6 °F 40% 30.27 in 10.0 mi East 6.9 mph - N/A   Scattered Clouds
2:35 PM 69.8 °F - 46.4 °F 43% 30.26 in 10.0 mi NE 6.9 mph - N/A   Mostly Cloudy
2:55 PM 69.8 °F - 44.6 °F 40% 30.25 in 10.0 mi ENE 8.1 mph - N/A   Mostly Cloudy
3:15 PM 69.8 °F - 44.6 °F 40% 30.24 in 10.0 mi NE 9.2 mph 17.3 mph N/A   Scattered Clouds
3:35 PM 71.6 °F - 42.8 °F 35% 30.23 in 10.0 mi NE 10.4 mph - N/A   Scattered Clouds
3:55 PM 71.6 °F - 41.0 °F 33% 30.22 in 10.0 mi ENE 10.4 mph - N/A   Scattered Clouds
4:15 PM 71.6 °F - 33.8 °F 25% 30.22 in 10.0 mi East 10.4 mph 19.6 mph N/A   Scattered Clouds
4:35 PM 71.6 °F - 33.8 °F 25% 30.22 in 10.0 mi East 12.7 mph 20.7 mph N/A   Clear
4:55 PM 71.6 °F - 33.8 °F 25% 30.22 in 10.0 mi ESE 8.1 mph 17.3 mph N/A   Clear
5:15 PM 69.8 °F - 33.8 °F 27% 30.22 in 10.0 mi East 12.7 mph 17.3 mph N/A   Clear
5:35 PM 69.8 °F - 33.8 °F 27% 30.22 in 10.0 mi East 9.2 mph - N/A   Clear
5:55 PM 68.0 °F - 33.8 °F 28% 30.22 in 10.0 mi ESE 13.8 mph 18.4 mph N/A   Clear
6:15 PM 66.2 °F - 33.8 °F 30% 30.23 in 10.0 mi East 9.2 mph 16.1 mph N/A   Clear
6:35 PM 66.2 °F - 33.8 °F 30% 30.23 in 10.0 mi East 6.9 mph 16.1 mph N/A   Clear
6:55 PM 64.4 °F - 28.4 °F 26% 30.24 in 10.0 mi East 11.5 mph 18.4 mph N/A   Clear
7:15 PM 62.6 °F - 26.6 °F 26% 30.24 in 10.0 mi East 9.2 mph - N/A   Clear
7:35 PM 62.6 °F - 28.4 °F 27% 30.25 in 10.0 mi East 5.8 mph - N/A   Clear
7:55 PM 60.8 °F - 30.2 °F 31% 30.25 in 10.0 mi East 8.1 mph - N/A   Clear
8:15 PM 59.0 °F - 35.6 °F 42% 30.25 in 10.0 mi East 8.1 mph - N/A   Clear
8:35 PM 57.2 °F - 37.4 °F 48% 30.26 in 10.0 mi East 8.1 mph - N/A   Clear
8:55 PM 57.2 °F - 39.2 °F 51% 30.27 in 10.0 mi ENE 9.2 mph - N/A   Clear
9:15 PM 55.4 °F - 39.2 °F 54% 30.27 in 10.0 mi ENE 6.9 mph - N/A   Clear
9:35 PM 55.4 °F - 39.2 °F 54% 30.28 in 10.0 mi ENE 6.9 mph - N/A   Clear
9:55 PM 55.4 °F - 39.2 °F 54% 30.29 in 10.0 mi ENE 6.9 mph - N/A   Clear
10:15 PM 53.6 °F - 39.2 °F 58% 30.29 in 10.0 mi ENE 5.8 mph - N/A   Clear
10:35 PM 53.6 °F - 37.4 °F 54% 30.29 in 10.0 mi NE 4.6 mph - N/A   Clear
10:55 PM 51.8 °F - 37.4 °F 58% 30.28 in 10.0 mi ENE 5.8 mph - N/A   Clear
11:15 PM 51.8 °F - 37.4 °F 58% 30.28 in 10.0 mi NE 5.8 mph - N/A   Clear
11:35 PM 50.0 °F - 37.4 °F 62% 30.27 in 10.0 mi NE 5.8 mph - N/A   Clear
11:55 PM 48.2 °F - 37.4 °F 66% 30.28 in 10.0 mi NE 3.5 mph - N/A   Clear